Temperature
16 16 16 16 16 16 16 16 16 16 16 16 16 15 15 15 15 15 15 15 15 15 15 15 15 15 15 15 15 15 15 15 15 15 15 15 15 15 15 15 15 15 15
17 16 16 16 16 16 16 16 16 16 15 15 15 15 15 15 15 15 15 15 15 15 15 15 15 15 15 15 15 14 14 14 14 15 15 15 15 15 15 15 14 14 14
17 16 16 16 16 16 15 15 15 15 15 15 15 15 15 15 14 14 14 14 14 14 14 14 14 14 14 14 14 14 14 14 14 14 14 14 14 14 14 14 14 14 14
17 16 16 16 16 15 15 15 15 15 15 15 15 15 15 15 14 14 14 14 14 14 14 14 14 14 14 14 14 14 14 14 14 14 14 14 14 14 14 14 14 14 14
16 16 16 16 16 15 15 15 15 15 15 15 15 15 15 15 14 14 14 14 13 14 14 14 13 13 13 13 13 13 13 13 13 13 13 14 14 14 14 14 14 13 13
16 16 16 16 16 15 15 15 15 15 15 15 14 14 14 14 14 14 14 13 13 13 13 13 13 13 13 13 13 13 13 13 13 13 13 13 13 13 13 13 13 13 13
16 16 16 16 15 15 15 15 15 15 15 14 14 14 14 14 14 14 13 13 13 13 13 13 13 13 13 13 13 13 13 13 13 13 13 13 13 13 13 13 13 13 13
16 16 16 15 15 15 15 15 15 15 15 14 14 14 14 14 14 14 13 13 13 13 13 12 12 12 12 12 12 12 12 12 12 12 12 12 12 12 12 12 12 12 12
16 16 15 15 15 15 15 15 15 15 14 14 14 14 14 13 13 13 13 13 13 13 12 12 12 12 12 12 12 12 12 12 12 12 12 12 12 12 12 12 12 12 12
16 15 15 15 15 15 15 15 15 14 14 14 14 14 14 14 13 13 13 13 13 12 12 12 12 12 12 12 12 12 12 12 12 12 12 12 12 12 12 12 12 11 11
15 15 15 15 15 15 15 14 14 14 14 14 14 14 14 14 14 13 13 12 12 12 12 12 12 12 12 12 12 12 12 12 12 12 12 12 12 12 12 11 11 11 11
15 15 15 15 15 15 14 14 14 14 14 14 14 14 14 14 13 13 13 13 12 12 12 12 12 12 12 12 12 12 12 12 12 12 12 12 12 11 11 11 11 11 11
15 15 15 15 15 15 14 14 14 14 14 14 14 14 14 14 14 13 13 13 12 12 12 12 12 11 11 11 11 11 11 11 12 12 12 12 12 11 11 11 11 11 11
15 15 15 15 15 15 14 14 14 14 14 14 14 14 14 13 13 13 13 13 12 12 12 12 11 11 11 11 11 11 11 11 11 11 11 11 11 11 11 11 11 11 11
15 15 15 15 15 14 14 14 14 14 14 14 13 13 13 13 13 13 13 13 12 12 12 12 11 11 11 11 11 11 11 11 11 11 11 11 11 11 11 11 11 11 11
15 15 15 15 14 14 14 14 14 14 14 13 13 13 13 13 13 13 13 13 12 12 12 12 11 11 11 11 11 11 11 11 11 11 11 11 11 11 11 11 11 11 11
15 15 14 14 14 14 14 14 14 14 13 13 13 13 13 13 13 13 13 12 12 12 12 12 11 11 11 11 11 11 11 11 11 11 11 11 11 11 11 11 11 11 11
15 14 14 14 14 14 14 14 14 13 13 13 13 13 13 13 13 12 12 12 12 12 12 11 11 11 11 11 10 10 10 10 10 10 10 10 10 10 10 10 10 10 10
14 14 14 14 14 14 13 13 13 13 13 13 13 13 13 12 12 12 12 12 12 12 11 11 11 11 10 10 10 10 10 10 10 10 10 10 10 10 10 10 10 10 10
14 14 14 14 13 13 13 13 13 13 13 13 13 12 12 12 12 12 12 12 12 11 11 11 11 10 10 10 10 10 10 10 10 10 10 10 10 10 10 10 10 10 10
13 13 13 13 13 13 13 13 13 13 12 12 12 12 12 12 12 12 12 11 11 11 11 11 10 10 10 10 10 10 10 9 9 9 10 10 10 10 10 10 10 9 9
13 13 13 13 13 13 13 12 12 12 12 12 12 12 12 12 12 12 11 11 11 11 11 10 10 10 10 10 9 9 9 9 9 9 9 9 9 9 9 9 9 9 9
12 12 12 12 12 12 12 12 12 12 12 12 12 12 11 11 11 11 11 11 11 10 10 10 10 10 10 10 9 9 9 9 9 9 9 9 9 9 9 9 9 9 9
12 12 12 12 12 12 12 12 11 11 11 11 11 11 11 11 11 11 11 11 10 10 10 10 10 10 9 9 9 9 9 9 9 9 9 9 9 9 9 9 9 9 9
11 11 11 11 11 11 11 11 11 11 11 11 11 11 11 11 11 11 10 10 10 10 10 9 9 9 9 9 9 9 9 9 8 8 8 8 8 8 8 8 8 8 8
11 10 11 11 11 11 11 11 10 10 10 10 10 10 10 10 10 10 10 10 10 10 10 9 9 9 9 9 9 9 8 8 8 8 8 8 8 8 8 8 8 8 8
Wind_Speed
3 3 3 4 4 3 3 3 4 6 6 7 8 8 7 8 9 9 10 13 13 13 12 13 12 13 12 12 11 11 11 11 10 10 10 9 8 7 6 6 6 6 7
3 3 3 4 4 4 4 4 5 5 5 5 6 6 7 8 9 9 9 11 13 13 12 13 13 14 13 13 12 12 11 11 10 10 9 9 8 7 7 6 6 6 6
5 4 3 3 4 5 5 4 5 4 4 5 6 6 6 7 8 8 9 8 10 12 13 13 13 12 12 12 11 11 11 11 10 9 9 9 8 7 7 7 7 7 6
7 4 3 3 4 5 4 3 3 4 4 5 4 4 4 5 6 7 7 8 8 9 10 12 12 12 11 11 11 10 10 10 10 9 9 9 8 7 7 6 6 6 7
6 5 3 3 4 4 3 3 4 3 4 4 3 4 4 3 4 5 5 7 8 9 8 10 11 11 11 11 11 10 10 10 10 9 9 9 8 7 7 7 6 7 8
5 5 3 3 4 3 3 3 3 3 2 2 3 4 3 3 3 4 4 5 6 8 8 8 7 9 10 10 10 11 10 10 10 10 9 9 9 8 7 8 7 7 8
4 5 3 3 3 3 2 3 3 3 2 2 3 3 3 3 4 3 3 3 4 6 6 7 6 7 7 9 9 9 9 10 9 9 9 9 8 8 8 8 7 7 7
3 4 3 3 3 2 3 3 3 2 1 1 1 1 1 2 3 3 3 3 3 4 4 5 6 6 6 6 7 8 8 9 9 9 9 8 8 7 7 7 7 6 6
3 3 3 3 2 2 2 2 2 2 1 1 1 1 1 1 1 1 2 2 3 2 2 3 5 6 7 7 6 7 8 8 8 8 8 8 7 7 7 6 7 7 7
3 3 3 3 2 2 2 2 2 2 2 0 1 1 1 2 1 0 1 1 2 2 2 3 4 5 6 6 6 6 6 6 6 6 7 7 7 6 6 6 5 5 6
3 3 3 2 2 2 2 2 1 1 1 1 0 0 1 1 1 2 0 1 1 1 2 1 2 3 5 6 5 6 6 5 5 6 6 6 6 6 5 5 4 4 5
2 3 3 2 2 2 2 2 2 1 1 1 0 0 1 0 0 1 1 1 0 0 1 1 1 2 4 5 4 5 4 4 4 5 5 5 6 5 4 4 4 3 4
2 4 3 2 2 2 3 2 2 2 2 1 1 1 0 0 0 1 1 1 0 0 0 1 1 3 4 5 5 4 3 4 4 4 4 4 4 5 4 4 4 3 4
3 4 4 3 3 2 3 2 2 2 2 2 2 1 0 1 0 1 1 1 0 1 0 1 0 2 4 4 3 3 3 3 3 3 3 3 3 4 4 5 5 4 4
1 3 3 3 3 3 2 3 2 2 1 2 2 2 1 1 0 0 1 2 2 1 1 1 0 1 3 4 3 3 3 2 2 2 2 2 3 3 4 5 5 4 4
2 1 3 3 3 3 2 2 1 1 1 1 1 1 1 0 1 1 1 1 1 2 1 1 1 1 2 2 2 2 3 2 2 2 2 1 1 2 3 4 4 4 4
2 2 2 2 3 3 3 2 2 1 1 2 2 2 2 1 1 1 0 0 0 1 1 1 0 1 1 1 1 2 4 4 3 3 3 2 0 1 2 3 4 4 4
2 3 2 2 1 1 2 2 2 2 2 2 2 2 2 1 1 1 1 1 1 2 2 2 1 0 1 1 2 1 2 2 3 4 4 4 3 2 1 2 3 3 4
1 2 2 2 1 0 1 1 2 2 2 2 1 2 2 2 1 1 1 1 1 1 2 2 1 0 0 0 1 0 1 1 2 4 5 5 5 4 3 2 3 3 3
1 1 1 1 1 1 1 0 1 2 2 2 1 1 2 2 2 1 1 1 0 0 1 1 1 1 1 1 1 1 1 1 2 1 2 3 5 4 4 3 3 2 2
2 1 1 1 1 1 1 0 1 0 1 1 1 1 1 2 2 1 1 1 1 1 1 1 2 1 1 1 1 1 1 2 2 1 1 2 2 3 3 4 3 3 3
1 1 1 1 1 1 0 1 1 0 1 1 1 1 1 2 1 2 1 1 1 2 2 2 2 2 2 2 1 1 1 1 2 1 1 2 1 2 2 2 3 4 4
1 1 1 1 2 1 1 1 1 0 1 1 1 1 1 1 2 2 1 1 0 0 2 2 1 2 2 2 1 2 2 2 2 2 1 2 1 1 2 3 4 4 4
1 2 2 2 2 1 1 1 1 1 1 1 1 2 2 2 2 2 2 1 1 1 0 0 1 1 1 2 2 2 3 2 1 1 1 1 1 1 1 2 3 3 3
2 2 2 2 2 2 2 1 1 1 2 2 1 1 1 2 2 2 2 2 1 1 1 1 1 1 1 1 1 1 0 0 1 2 1 1 1 1 1 2 2 3 3
2 2 2 2 2 2 2 2 2 1 2 2 1 1 1 1 1 3 3 3 3 2 1 1 0 1 1 1 1 2 2 1 1 2 1 0 1 1 1 2 1 2 3
Wind_Direction
95 86 87 88 77 67 57 45 49 57 58 57 62 66 65 71 77 75 77 72 70 67 67 71 73 70 71 74 74 71 71 68 64 59 55 56 61 67 76 77 78 76 74
93 89 76 80 78 64 63 62 57 59 61 67 63 62 62 68 78 84 83 75 72 71 70 71 73 72 67 68 70 67 66 63 62 58 54 56 59 68 72 75 78 76 77
84 80 86 78 79 77 66 63 62 59 65 64 62 59 57 61 71 75 80 81 75 68 68 70 71 70 71 69 67 65 65 62 59 56 54 57 61 69 74 74 72 68 72
90 78 75 76 75 69 62 59 61 59 61 57 57 58 60 57 67 71 72 73 78 76 72 70 68 69 71 69 65 61 61 59 56 54 55 59 62 67 70 70 65 62 67
92 87 76 77 81 70 65 65 59 55 65 64 68 69 65 62 64 71 68 75 79 83 80 74 68 66 68 65 63 60 59 56 54 54 55 55 56 61 63 64 65 65 62
90 99 93 87 81 77 71 71 73 66 69 68 66 69 70 74 69 61 62 67 75 80 76 74 69 66 67 63 57 56 54 51 52 52 51 51 52 58 61 64 67 64 58
83 87 79 81 76 86 92 91 83 81 67 71 69 57 50 69 74 62 58 61 63 79 83 78 77 75 69 59 56 54 50 49 48 47 46 46 48 55 63 62 63 63 56
110 110 110 105 97 94 84 84 84 73 59 74 99 88 53 28 35 55 66 61 58 63 70 78 86 85 77 73 63 58 55 50 46 46 47 46 48 53 61 61 61 62 57
96 96 93 108 124 119 114 108 109 99 93 14 59 99 113 131 347 9 65 70 69 58 54 63 83 88 83 79 68 59 54 46 44 43 44 40 47 51 56 60 59 56 51
111 102 102 97 112 108 126 131 121 122 111 52 353 14 89 136 138 23 353 42 77 72 62 47 66 83 88 87 77 66 52 44 39 38 37 34 42 47 53 58 56 49 43
134 131 119 119 132 131 130 111 96 113 137 153 152 351 15 21 134 146 233 324 16 45 70 49 69 84 95 99 90 74 56 43 37 32 29 34 40 47 54 52 49 41 33
157 152 134 142 150 150 145 143 135 145 152 131 96 115 130 114 288 127 174 221 288 285 61 54 65 87 94 95 89 75 61 54 43 34 37 35 35 39 41 39 39 35 25
166 178 162 169 166 167 157 151 162 186 180 153 187 227 151 227 183 118 128 182 219 241 58 38 86 104 97 98 97 82 75 73 62 51 43 35 32 32 27 25 25 22 20
170 166 168 176 169 163 161 160 177 198 180 178 184 162 138 281 40 120 146 142 177 296 340 225 345 119 115 117 118 103 102 100 87 77 56 37 26 21 19 16 9 7 14
156 161 164 172 172 166 167 161 178 204 198 185 170 175 176 210 132 127 132 139 147 223 268 224 163 154 122 133 144 147 141 142 134 121 76 41 27 21 18 16 7 8 10
148 155 169 167 163 152 152 142 165 212 187 157 149 168 160 166 148 113 134 158 155 171 234 243 219 187 148 139 175 174 169 164 159 165 144 100 29 16 12 7 7 5 3
169 177 166 176 175 170 169 157 181 202 194 181 178 180 178 163 149 178 165 153 196 153 196 275 254 168 134 131 148 184 179 166 170 189 177 181 234 336 354 2 6 1 353
190 177 172 168 171 163 172 165 195 200 198 194 201 176 182 176 173 196 182 205 217 191 183 216 254 232 202 187 187 210 177 185 187 201 199 207 221 238 286 324 340 341 343
173 157 164 164 175 174 182 178 184 192 190 191 183 159 171 153 182 207 211 220 234 224 180 177 225 246 235 227 130 258 257 233 218 207 208 218 222 232 242 265 297 311 326
159 157 175 177 186 188 167 155 232 199 187 199 190 186 179 160 167 162 207 215 232 208 157 146 178 222 243 242 128 222 273 275 268 222 217 226 222 236 237 254 276 294 315
172 172 188 191 165 171 165 167 259 254 200 197 171 188 131 109 92 166 203 198 175 191 178 166 189 210 228 224 227 236 250 262 264 225 210 228 209 217 236 249 251 261 284
178 171 190 182 169 165 72 37 328 247 260 207 183 162 145 136 128 112 119 133 169 185 192 190 205 206 224 218 209 259 250 262 278 264 198 254 190 221 213 208 239 251 259
194 201 202 189 187 183 160 228 298 242 243 233 192 175 217 193 143 159 162 144 145 183 176 178 191 222 220 232 203 234 263 259 249 247 195 251 234 234 225 237 242 247 248
198 202 210 212 200 182 177 222 262 234 244 240 223 200 188 179 195 149 158 158 143 47 64 157 180 200 191 183 199 215 234 250 265 293 102 230 260 264 257 228 241 231 248
205 213 203 205 208 201 190 190 173 226 241 240 232 242 226 185 198 154 153 176 182 276 23 89 85 88 121 114 117 95 36 51 281 281 275 174 270 294 268 250 237 233 263
206 207 214 210 210 201 190 176 173 209 243 254 238 224 267 276 216 174 177 185 199 213 198 213 211 228 212 157 123 143 170 192 254 277 279 134 274 350 314 274 224 246 260
Height
1528 1528 1528 1528 1528 1528 1528 1528 1528 1529 1529 1529 1529 1529 1528 1528 1527 1527 1526 1526 1524 1524 1523 1522 1523 1523 1522 1523 1524 1525 1525 1526 1526 1526 1526 1526 1526 1526 1527 1528 1529 1529 1529
1529 1529 1529 1529 1529 1529 1529 1529 1529 1530 1530 1530 1530 1530 1530 1529 1529 1528 1528 1528 1527 1526 1525 1525 1524 1524 1524 1524 1525 1526 1526 1526 1526 1526 1526 1526 1526 1527 1527 1528 1528 1529 1529
1530 1530 1530 1530 1530 1531 1531 1531 1531 1531 1531 1531 1531 1531 1531 1531 1531 1530 1530 1529 1528 1528 1527 1527 1527 1526 1526 1526 1527 1527 1527 1527 1527 1527 1527 1527 1527 1527 1527 1528 1528 1528 1529
1531 1531 1531 1531 1532 1532 1532 1532 1532 1532 1532 1532 1533 1533 1533 1533 1532 1532 1532 1531 1530 1530 1529 1529 1528 1528 1528 1528 1528 1528 1528 1528 1528 1528 1527 1527 1527 1527 1527 1527 1528 1528 1528
1531 1532 1532 1532 1532 1533 1533 1533 1533 1533 1533 1533 1534 1534 1534 1534 1534 1534 1533 1533 1532 1532 1531 1531 1530 1530 1529 1529 1529 1529 1528 1528 1528 1528 1527 1527 1527 1527 1527 1527 1527 1527 1528
1532 1532 1532 1532 1533 1533 1533 1533 1533 1534 1534 1535 1535 1535 1535 1535 1535 1535 1535 1534 1534 1534 1533 1532 1532 1531 1531 1530 1530 1530 1529 1529 1528 1528 1528 1527 1527 1526 1526 1526 1527 1527 1527
1532 1532 1532 1532 1533 1533 1533 1534 1534 1535 1535 1536 1536 1536 1536 1537 1537 1536 1536 1536 1535 1535 1534 1534 1533 1532 1531 1531 1531 1530 1529 1529 1528 1528 1528 1527 1527 1526 1526 1526 1526 1526 1527
1532 1532 1532 1532 1533 1533 1534 1534 1535 1535 1536 1536 1537 1536 1537 1539 1538 1538 1537 1537 1537 1536 1536 1535 1534 1533 1532 1531 1531 1530 1530 1529 1528 1528 1527 1527 1526 1526 1526 1526 1526 1526 1526
1531 1532 1532 1532 1533 1533 1533 1534 1535 1535 1536 1536 1537 1538 1538 1538 1538 1539 1538 1538 1538 1537 1536 1536 1535 1533 1533 1532 1531 1530 1530 1529 1528 1528 1527 1527 1526 1525 1525 1525 1525 1525 1525
1531 1531 1532 1532 1532 1533 1533 1534 1535 1535 1536 1536 1537 1537 1538 1537 1538 1538 1539 1538 1538 1537 1537 1536 1535 1534 1533 1532 1531 1530 1530 1529 1528 1528 1527 1526 1525 1525 1524 1525 1525 1525 1524
1530 1530 1531 1531 1532 1532 1533 1534 1534 1535 1535 1536 1536 1536 1537 1537 1537 1537 1537 1538 1538 1537 1536 1536 1535 1534 1533 1532 1531 1530 1529 1528 1528 1527 1526 1526 1525 1524 1524 1524 1524 1524 1524
1529 1529 1530 1530 1531 1531 1532 1532 1533 1534 1535 1535 1535 1536 1536 1536 1536 1536 1536 1536 1536 1536 1536 1535 1534 1533 1532 1531 1530 1529 1529 1528 1527 1526 1525 1524 1524 1523 1523 1523 1523 1523 1523
1527 1528 1528 1529 1529 1530 1531 1531 1532 1533 1534 1534 1534 1535 1535 1535 1535 1535 1535 1535 1535 1535 1535 1534 1533 1533 1532 1531 1530 1529 1528 1527 1526 1525 1524 1524 1523 1523 1523 1523 1522 1522 1522
1525 1526 1527 1527 1528 1529 1529 1530 1531 1532 1532 1533 1533 1533 1534 1534 1534 1534 1534 1534 1534 1534 1533 1533 1532 1532 1531 1530 1529 1528 1527 1526 1525 1524 1524 1523 1523 1522 1522 1522 1522 1521 1521
1523 1524 1525 1525 1526 1527 1528 1529 1529 1530 1531 1531 1532 1532 1532 1533 1533 1533 1533 1533 1533 1532 1532 1531 1531 1531 1530 1529 1528 1527 1526 1525 1524 1523 1523 1522 1522 1521 1521 1521 1520 1520 1520
1521 1522 1522 1523 1524 1525 1526 1526 1527 1528 1529 1529 1530 1530 1531 1531 1531 1531 1531 1531 1532 1531 1530 1530 1529 1529 1528 1527 1527 1526 1525 1524 1523 1522 1522 1521 1521 1521 1520 1519 1519 1518 1518
1518 1519 1520 1521 1522 1523 1524 1524 1525 1526 1527 1527 1528 1528 1529 1529 1529 1529 1529 1529 1529 1529 1528 1528 1528 1528 1527 1526 1525 1524 1524 1523 1522 1521 1521 1520 1520 1519 1519 1518 1518 1517 1517
1515 1516 1517 1518 1519 1520 1521 1522 1523 1524 1525 1525 1526 1526 1526 1526 1527 1527 1527 1527 1527 1527 1526 1526 1526 1526 1525 1525 1524 1523 1522 1521 1521 1520 1520 1519 1518 1518 1518 1517 1517 1516 1516
1513 1514 1514 1515 1517 1518 1519 1519 1520 1521 1522 1523 1523 1523 1523 1524 1524 1524 1524 1524 1524 1524 1524 1524 1523 1523 1523 1523 1522 1521 1521 1520 1519 1519 1518 1517 1516 1516 1516 1516 1515 1515 1514
1510 1511 1512 1513 1514 1515 1516 1517 1518 1518 1519 1520 1521 1521 1521 1521 1521 1521 1521 1521 1521 1521 1521 1521 1521 1521 1521 1520 1520 1519 1518 1518 1518 1517 1516 1516 1515 1515 1515 1514 1514 1513 1513
1507 1508 1509 1510 1511 1512 1513 1514 1515 1515 1516 1517 1517 1518 1518 1518 1519 1519 1518 1518 1518 1518 1518 1518 1518 1518 1518 1518 1517 1517 1516 1516 1516 1515 1515 1514 1514 1513 1513 1513 1512 1512 1511
1504 1505 1506 1507 1508 1508 1510 1511 1512 1512 1513 1513 1514 1514 1515 1515 1515 1515 1515 1515 1516 1516 1515 1515 1515 1515 1515 1515 1515 1515 1514 1514 1513 1514 1513 1512 1512 1511 1511 1511 1510 1510 1509
1501 1502 1503 1504 1504 1505 1506 1507 1509 1509 1510 1510 1511 1511 1512 1512 1512 1512 1512 1513 1513 1513 1513 1513 1513 1512 1512 1512 1512 1512 1512 1511 1511 1511 1511 1509 1510 1509 1509 1508 1508 1508 1507
1497 1498 1499 1500 1501 1502 1503 1504 1505 1506 1506 1507 1507 1508 1508 1509 1508 1509 1509 1509 1509 1509 1510 1510 1510 1510 1510 1510 1510 1510 1509 1509 1508 1508 1508 1507 1507 1506 1506 1506 1506 1505 1504
1494 1495 1496 1497 1498 1499 1500 1501 1502 1502 1503 1503 1504 1505 1505 1505 1505 1505 1505 1505 1506 1506 1506 1506 1507 1507 1507 1507 1507 1506 1506 1506 1505 1504 1505 1505 1504 1503 1503 1503 1503 1502 1502
1491 1492 1492 1494 1495 1495 1496 1497 1498 1498 1499 1499 1500 1501 1501 1502 1502 1502 1502 1502 1502 1502 1502 1503 1503 1503 1503 1503 1503 1503 1503 1502 1502 1501 1502 1502 1501 1501 1500 1500 1500 1499 1499